GW3497 Weather Reports


time (UTC)temp
C
wind
direction
speed
KPH
gust
KPH
rain 1hr
cm
rain 24hr
cm
rain mn
cm
humidity
%
barometer
mb
20260903001240 18 252 11.3 20.9 0.00 0.00 0.00 90 1016.1
20260903000833 18 244 11.3 20.9 0.00 0.00 0.00 90 1016.2
20260902235737 18 233 9.7 17.7 0.00 0.00 0.00 90 1016.3
20260902235540 18 251 11.3 20.9 0.00 0.00 0.00 90 1016.2
20260902234737 18 248 9.7 20.9 0.00 0.00 0.00 90 1016.0
20260902234232 18 251 9.7 17.7 0.00 0.00 0.00 90 1016.1
20260902233731 18 216 9.7 17.7 0.00 0.00 0.00 90 1016.1
20260902233232 18 251 9.7 24.1 0.00 0.00 0.00 90 1016.1
20260902232730 18 248 14.5 24.1 0.00 0.00 0.00 90 1016.1
20260902232231 18 223 12.9 20.9 0.00 0.00 0.00 90 1016.0
20260902231729 18 226 9.7 20.9 0.00 0.00 0.00 90 1016.1
20260902231230 18 255 9.7 20.9 0.00 0.00 0.00 90 1016.3
20260902231102 18 250 12.9 19.3 0.00 0.00 0.00 90 1016.4
20260902230230 18 233 8.0 16.1 0.00 0.00 0.00 90 1016.4
20260902225731 18 252 9.7 16.1 0.00 0.00 0.00 90 1016.3
20260902225223 18 237 11.3 17.7 0.00 0.00 0.00 90 1016.2
20260902225053 18 195 9.7 17.7 0.00 0.00 0.00 90 1016.2
20260902224223 18 254 9.7 19.3 0.00 0.00 0.00 90 1016.3
20260902223719 18 237 11.3 19.3 0.00 0.00 0.00 90 1016.3
20260902223221 18 247 11.3 19.3 0.00 0.00 0.00 90 1016.3
20260902223100 18 252 11.3 17.7 0.00 0.00 0.00 90 1016.4
20260902222220 18 257 9.7 17.7 0.00 0.00 0.00 90 1016.5
20260902221718 18 257 9.7 17.7 0.00 0.00 0.00 91 1016.4
20260902221218 18 237 9.7 17.7 0.00 0.00 0.00 91 1016.3
20260902220717 18 234 8.0 17.7 0.00 0.00 0.00 91 1016.3
20260902220222 18 259 8.0 19.3 0.00 0.00 0.00 91 1016.3
20260902215717 18 235 11.3 19.3 0.00 0.00 0.00 91 1016.3
20260902215217 18 257 9.7 19.3 0.00 0.00 0.00 91 1016.1
20260902214717 18 224 9.7 17.7 0.00 0.00 0.00 91 1016.3
20260902214527 18 244 9.7 19.3 0.00 0.00 0.00 91 1016.4
20260902213716 18 254 9.7 22.5 0.00 0.00 0.00 91 1016.3
20260902213215 18 247 8.0 22.5 0.00 0.00 0.00 91 1016.1
20260902212721 18 241 14.5 20.9 0.00 0.00 0.00 91 1016.1
20260902212217 18 243 11.3 20.9 0.00 0.00 0.00 91 1016.1
20260902211716 18 247 9.7 20.9 0.00 0.00 0.00 91 1016.0
20260902211526 18 254 9.7 17.7 0.00 0.00 0.00 91 1016.2
20260902210717 18 251 8.0 17.7 0.00 0.00 0.00 91 1016.1
20260902210217 18 261 11.3 20.9 0.00 0.00 0.00 91 1016.1
20260902205716 18 255 8.0 20.9 0.00 0.00 0.00 91 1016.1
20260902205216 18 245 12.9 17.7 0.00 0.00 0.00 91 1016.1
20260902205039 18 265 11.3 22.5 0.00 0.00 0.00 91 1016.1
20260902204525 18 264 9.7 22.5 0.00 0.00 0.00 91 1016.2
20260902203717 18 269 8.0 19.3 0.00 0.00 0.00 91 1016.1
20260902203216 18 219 11.3 17.7 0.00 0.00 0.00 91 1016.1
20260902202717 18 185 9.7 16.1 0.00 0.00 0.00 91 1015.9
20260902202216 18 209 9.7 16.1 0.00 0.00 0.00 91 1015.9
20260902201719 18 245 9.7 14.5 0.00 0.00 0.00 91 1015.9
20260902201215 18 274 9.7 24.1 0.00 0.00 0.00 91 1016.0
20260902201041 18 254 14.5 24.1 0.00 0.00 0.00 91 1016.0
20260902200519 18 244 11.3 27.4 0.00 0.00 0.00 92 1016.1
20260902195718 18 248 12.9 27.4 0.00 0.00 0.00 92 1016.0
20260902195218 18 209 8.0 27.4 0.00 0.00 0.00 92 1016.0
20260902194717 18 261 16.1 27.4 0.00 0.00 0.00 92 1016.0
20260902194335 17 243 12.9 27.4 0.00 0.00 0.00 92 1015.9
20260902194313 17 235 11.3 27.4 0.00 0.00 0.00 92 1016.0
20260902193516 17 219 8.0 19.3 0.00 0.00 0.00 92 1015.9
20260902192712 17 252 6.4 17.7 0.00 0.00 0.00 92 1016.0
20260902192213 17 248 8.0 22.5 0.00 0.00 0.00 92 1016.0
20260902191713 17 233 9.7 22.5 0.00 0.00 0.00 92 1016.0
20260902191212 17 254 9.7 17.7 0.00 0.00 0.00 92 1016.0
20260902190712 17 223 9.7 17.7 0.00 0.00 0.00 92 1016.0
20260902190211 17 223 8.0 22.5 0.00 0.00 0.00 92 1016.0
20260902185712 17 255 11.3 22.5 0.00 0.00 0.00 92 1015.9
20260902185212 17 244 9.7 20.9 0.00 0.00 0.00 91 1015.9
20260902184711 17 220 9.7 19.3 0.00 0.00 0.00 92 1015.8
20260902184211 17 237 9.7 20.9 0.00 0.00 0.00 91 1015.8
20260902183712 17 235 11.3 27.4 0.00 0.00 0.00 91 1015.9
20260902183210 17 261 11.3 27.4 0.00 0.00 0.00 91 1015.9
20260902182708 17 223 8.0 19.3 0.00 0.00 0.00 91 1016.0
20260902182208 17 261 9.7 19.3 0.00 0.00 0.00 91 1016.0
20260902181708 17 217 9.7 17.7 0.00 0.00 0.00 91 1016.0
20260902181210 17 258 12.9 19.3 0.00 0.00 0.00 90 1016.0
20260902180706 17 224 11.3 20.9 0.00 0.00 0.00 90 1015.9
20260902180205 17 237 9.7 24.1 0.00 0.00 0.00 90 1016.0
20260902175950 17 224 8.0 24.1 0.00 0.00 0.00 90 1016.1
20260902175206 18 213 14.5 22.5 0.00 0.00 0.00 89 1016.0
20260902174706 18 221 9.7 22.5 0.00 0.00 0.00 89 1016.1
20260902174203 18 248 9.7 22.5 0.00 0.00 0.00 89 1016.1
20260902173702 18 240 8.0 25.7 0.00 0.00 0.00 89 1016.2
20260902173203 18 250 11.3 25.7 0.00 0.00 0.00 88 1016.2
20260902172703 18 227 9.7 25.7 0.00 0.00 0.00 88 1016.3
20260902172202 18 226 12.9 25.7 0.00 0.00 0.00 88 1016.3
20260902171705 18 250 6.4 24.1 0.00 0.00 0.00 87 1016.3
20260902171204 18 216 11.3 20.9 0.00 0.00 0.00 87 1016.3
20260902170659 18 313 11.3 25.7 0.00 0.00 0.00 87 1016.3
20260902170200 18 220 11.3 25.7 0.00 0.00 0.00 86 1016.3
20260902165659 18 216 14.5 24.1 0.00 0.00 0.00 86 1016.3
20260902165159 18 231 14.5 32.2 0.00 0.00 0.00 85 1016.4
20260902164659 18 219 17.7 32.2 0.00 0.00 0.00 85 1016.4
20260902164200 18 237 14.5 25.7 0.00 0.00 0.00 85 1016.3
20260902163946 18 238 16.1 32.2 0.00 0.00 0.00 84 1016.3
20260902163201 18 250 19.3 43.5 0.00 0.00 0.00 84 1016.2
20260902162659 18 235 19.3 43.5 0.00 0.00 0.00 83 1016.2
20260902162157 18 213 12.9 30.6 0.00 0.00 0.00 83 1016.3
20260902161657 18 255 14.5 30.6 0.00 0.00 0.00 83 1016.4
20260902161157 18 226 12.9 30.6 0.00 0.00 0.00 82 1016.5
20260902160945 18 235 12.9 30.6 0.00 0.00 0.00 82 1016.5
20260902160154 18 245 12.9 29.0 0.00 0.00 0.00 81 1016.5
20260902155654 18 241 12.9 29.0 0.00 0.00 0.00 81 1016.6
20260902155156 18 221 12.9 27.4 0.00 0.00 0.00 81 1016.6
20260902154726 18 217 12.9 27.4 0.00 0.00 0.00 81 1016.5
20260902154412 18 258 12.9 25.7 0.00 0.00 0.00 80 1016.9
20260902154340 18 212 12.9 29.0 0.00 0.00 0.00 80 1016.7
20260902152759 18 226 11.3 32.2 0.00 0.00 0.00 78 1016.9
20260902152743 18 245 16.1 32.2 0.00 0.00 0.00 79 1016.8
20260902151655 19 266 12.9 25.7 0.00 0.00 0.00 78 1017.0
20260902151445 19 213 11.3 25.7 0.00 0.00 0.00 78 1016.9
20260902150657 19 226 12.9 27.4 0.00 0.00 0.00 77 1017.0
20260902150158 19 219 12.9 29.0 0.00 0.00 0.00 77 1016.9
20260902145656 19 176 20.9 32.2 0.00 0.00 0.00 77 1017.0
20260902145155 19 241 17.7 32.2 0.00 0.00 0.00 77 1017.0
20260902144656 19 243 17.7 32.2 0.00 0.00 0.00 76 1017.0
20260902144440 19 189 11.3 24.1 0.00 0.00 0.00 76 1017.1
20260902143653 19 192 14.5 24.1 0.00 0.00 0.00 76 1017.1
20260902143156 19 227 9.7 27.4 0.00 0.00 0.00 77 1017.3
20260902142653 19 220 12.9 37.0 0.00 0.00 0.00 76 1017.3
20260902142437 19 216 19.3 38.6 0.00 0.00 0.00 76 1017.4
20260902141938 19 173 19.3 38.6 0.00 0.00 0.00 76 1017.3
20260902141155 19 235 11.3 35.4 0.00 0.00 0.00 77 1017.5
20260902140654 18 220 11.3 35.4 0.00 0.00 0.00 79 1017.4
20260902140155 18 219 17.7 32.2 0.00 0.00 0.00 79 1017.6
20260902135653 18 217 14.5 25.7 0.00 0.00 0.00 80 1017.6
20260902135155 18 0.0 0.0 0.00 0.00 0.00 81 1017.7
20260902134756 17 0.0 0.0 0.00 0.00 0.00 82 1017.8
20260902134739 18 0.0 0.0 0.00 0.00 0.00 81 1017.7
20260902133649 17 0.0 0.0 0.00 0.00 0.00 84 1017.7
20260902133152 17 0.0 0.0 0.00 0.00 0.00 85 1017.9
20260902132650 17 0.0 0.0 0.00 0.00 0.00 85 1018.0
20260902132147 17 0.0 0.0 0.00 0.00 0.00 85 1018.0
20260902131934 17 0.0 0.0 0.00 0.00 0.00 86 1018.1
20260902131147 17 0.0 0.0 0.00 0.00 0.00 86 1018.2
20260902130708 17 0.0 0.0 0.00 0.00 0.00 87 1018.3
20260902130658 17 0.0 0.0 0.00 0.00 0.00 87 1018.3
20260902125847 17 0.0 0.0 0.00 0.00 0.00 86 1018.4
20260902124649 17 0.0 0.0 0.00 0.00 0.00 87 1018.3
20260902124146 17 0.0 0.0 0.00 0.00 0.00 87 1018.4
20260902123646 17 0.0 0.0 0.00 0.00 0.00 88 1018.4
20260902123146 17 0.0 0.0 0.00 0.00 0.00 88 1018.5
20260902122645 17 0.0 0.0 0.00 0.00 0.00 88 1018.4
20260902122441 17 0.0 0.0 0.00 0.00 0.00 88 1018.5
20260902121947 17 0.0 0.0 0.00 0.00 0.00 87 1018.6
20260902121147 17 0.0 0.0 0.00 0.00 0.00 87 1018.6
20260902120752 17 0.0 0.0 0.00 0.00 0.00 87 1018.7
20260902120730 17 0.0 0.0 0.00 0.00 0.00 87 1018.7
20260902115642 17 0.0 0.0 0.00 0.00 0.00 87 1018.7
20260902115143 17 0.0 0.0 0.00 0.00 0.00 86 1018.7
20260902114643 17 0.0 0.0 0.00 0.00 0.00 86 1018.8
20260902114143 17 0.0 0.0 0.00 0.00 0.00 87 1018.8
20260902113643 17 0.0 0.0 0.00 0.00 0.00 87 1018.8
20260902113143 17 0.0 0.0 0.00 0.00 0.00 87 1018.8
20260902112644 17 0.0 0.0 0.00 0.00 0.00 87 1018.8
20260902112142 17 0.0 0.0 0.00 0.00 0.00 87 1019.0
20260902111642 17 0.0 0.0 0.00 0.00 0.00 87 1019.1
20260902111142 17 0.0 0.0 0.00 0.00 0.00 86 1019.2
20260902110641 17 0.0 0.0 0.00 0.00 0.00 86 1019.3
20260902110142 17 0.0 0.0 0.00 0.00 0.00 84 1019.5
20260902105640 17 0.0 0.0 0.00 0.00 0.00 84 1019.6
20260902105139 17 0.0 0.0 0.00 0.00 0.00 84 1019.5
20260902104639 17 0.0 0.0 0.00 0.00 0.00 85 1019.5
20260902104139 17 0.0 0.0 0.00 0.00 0.00 84 1019.6
20260902103637 17 0.0 0.0 0.00 0.00 0.00 83 1019.6
20260902103140 17 0.0 0.0 0.00 0.00 0.00 82 1019.6
20260902102639 17 0.0 0.0 0.00 0.00 0.00 81 1019.7
20260902102135 17 0.0 0.0 0.00 0.00 0.00 81 1019.6
20260902101639 17 0.0 0.0 0.00 0.00 0.00 80 1019.6
20260902101137 17 0.0 0.0 0.00 0.00 0.00 81 1019.6
20260902100637 18 0.0 0.0 0.00 0.00 0.00 81 1019.5
20260902100134 17 0.0 0.0 0.00 0.00 0.00 81 1019.6
20260902095634 17 0.0 0.0 0.00 0.00 0.00 81 1019.7
20260902095133 17 0.0 0.0 0.00 0.00 0.00 81 1019.8
20260902094931 17 0.0 0.0 0.00 0.00 0.00 83 1019.8
20260902094132 17 0.0 0.0 0.00 0.00 0.00 83 1019.8
20260902093633 17 0.0 0.0 0.00 0.00 0.00 83 1019.6
20260902093132 17 0.0 0.0 0.00 0.00 0.00 83 1019.6
20260902092632 17 0.0 0.0 0.00 0.00 0.00 84 1019.6
20260902092133 17 0.0 0.0 0.00 0.00 0.00 84 1019.6
20260902091630 17 0.0 0.0 0.00 0.00 0.00 85 1019.6
20260902091131 17 0.0 0.0 0.00 0.00 0.00 85 1019.6
20260902090630 17 0.0 0.0 0.00 0.00 0.00 85 1019.7
20260902090133 17 0.0 0.0 0.00 0.00 0.00 86 1019.6
20260902085624 16 0.0 0.0 0.00 0.00 0.00 86 1019.6
20260902085126 16 0.0 0.0 0.00 0.00 0.00 87 1019.7
20260902084618 16 0.0 0.0 0.00 0.00 0.00 87 1019.6
20260902084119 16 0.0 0.0 0.00 0.00 0.00 87 1019.7
20260902083616 16 0.0 0.0 0.00 0.00 0.00 86 1019.7
20260902083117 16 0.0 0.0 0.00 0.00 0.00 86 1019.7
20260902082613 16 0.0 0.0 0.00 0.00 0.00 86 1019.7
20260902082410 16 0.0 0.0 0.00 0.00 0.00 86 1019.6
20260902081610 16 0.0 0.0 0.00 0.00 0.00 86 1019.5
20260902081109 16 0.0 0.0 0.00 0.00 0.00 87 1019.6
20260902080608 16 0.0 0.0 0.00 0.00 0.00 87 1019.5
20260902080115 16 0.0 0.0 0.00 0.00 0.00 87 1019.4
20260902075857 16 0.0 0.0 0.00 0.00 0.00 87 1019.5
20260902075103 16 0.0 0.0 0.00 0.00 0.00 87 1019.5
20260902074854 16 0.0 0.0 0.00 0.00 0.00 87 1019.4
20260902074103 16 0.0 0.0 0.00 0.00 0.00 87 1019.3
20260902073603 16 0.0 0.0 0.00 0.00 0.00 87 1019.3
20260902073356 15 0.0 0.0 0.00 0.00 0.00 87 1019.3
20260902072608 15 0.0 0.0 0.00 0.00 0.00 87 1019.3
20260902072105 15 0.0 0.0 0.00 0.00 0.00 88 1019.3
20260902071602 15 0.0 0.0 0.00 0.00 0.00 88 1019.3
20260902071057 15 0.0 0.0 0.00 0.00 0.00 88 1019.3
20260902070556 15 0.0 0.0 0.00 0.00 0.00 88 1019.1
20260902070116 15 0.0 0.0 0.00 0.00 0.00 88 1019.2
20260902065555 15 0.0 0.0 0.00 0.00 0.00 88 1019.1
20260902065055 15 0.0 0.0 0.00 0.00 0.00 87 1019.3
20260902064558 15 0.0 0.0 0.00 0.00 0.00 87 1019.2
20260902064054 15 0.0 0.0 0.00 0.00 0.00 87 1019.2
20260902063554 15 0.0 0.0 0.00 0.00 0.00 88 1019.1
20260902063052 15 0.0 0.0 0.00 0.00 0.00 87 1019.2
20260902062553 15 0.0 0.0 0.00 0.00 0.00 87 1019.1
20260902062051 15 0.0 0.0 0.00 0.00 0.00 87 1018.9
20260902061344 14 0.0 0.0 0.00 0.00 0.00 87 1019.0
20260902060549 14 0.0 0.0 0.00 0.00 0.00 87 1018.8
20260902060112 14 0.0 0.0 0.00 0.00 0.00 87 1018.9
20260902055542 14 0.0 0.0 0.00 0.00 0.00 87 1019.0
20260902055052 14 0.0 0.0 0.00 0.00 0.00 86 1018.9
20260902054541 14 0.0 0.0 0.00 0.00 0.00 86 1018.8
20260902054039 14 0.0 0.0 0.00 0.00 0.00 86 1018.9
20260902053539 14 0.0 0.0 0.00 0.00 0.00 86 1018.9
20260902053341 14 0.0 0.0 0.00 0.00 0.00 86 1018.9
20260902052539 15 0.0 0.0 0.00 0.00 0.00 86 1018.9
20260902052039 15 0.0 0.0 0.00 0.00 0.00 86 1018.9
20260902051538 15 0.0 0.0 0.00 0.00 0.00 86 1018.9
20260902051040 15 0.0 0.0 0.00 0.00 0.00 86 1019.0
20260902050827 15 0.0 0.0 0.00 0.00 0.00 86 1019.0
20260902050053 15 0.0 0.0 0.00 0.00 0.00 86 1019.0
20260902045821 15 0.0 0.0 0.00 0.00 0.00 86 1019.0
20260902045034 15 0.0 0.0 0.00 0.00 0.00 86 1019.1
20260902044530 15 0.0 0.0 0.00 0.00 0.00 86 1019.0
20260902044034 15 0.0 0.0 0.00 0.00 0.00 86 1019.0
20260902043529 15 0.0 0.0 0.00 0.00 0.00 86 1019.1
20260902043041 15 0.0 0.0 0.00 0.00 0.00 86 1019.0
20260902042530 15 0.0 0.0 0.00 0.00 0.00 86 1019.1
20260902042029 15 0.0 0.0 0.00 0.00 0.00 86 1019.0
20260902041529 15 0.0 0.0 0.00 0.00 0.00 86 1019.1
20260902041038 15 0.0 0.0 0.00 0.00 0.00 86 1019.0
20260902040529 15 0.0 0.0 0.00 0.00 0.00 86 1019.2
20260902040049 15 0.0 0.0 0.00 0.00 0.00 86 1019.2
20260902035528 15 0.0 0.0 0.00 0.00 0.00 86 1018.9
20260902035029 15 0.0 0.0 0.00 0.00 0.00 86 1019.0
20260902034526 15 0.0 0.0 0.00 0.00 0.00 86 1019.2
20260902034027 15 0.0 0.0 0.00 0.00 0.00 86 1019.1
20260902033524 14 0.0 0.0 0.00 0.00 0.00 86 1019.2
20260902033040 14 0.0 0.0 0.00 0.00 0.00 86 1019.1
20260902032528 14 0.0 0.0 0.00 0.00 0.00 86 1019.2
20260902032032 14 0.0 0.0 0.00 0.00 0.00 87 1019.3
20260902031525 14 247 1.6 1.6 0.00 0.00 0.00 87 1019.4
20260902031042 14 247 1.6 1.6 0.00 0.00 0.00 87 1019.5
20260902030521 14 247 1.6 1.6 0.00 0.00 0.00 87 1019.5
20260902030052 14 247 1.6 1.6 0.00 0.00 0.00 87 1019.3
20260902025518 14 0.0 0.0 0.00 0.00 0.00 87 1019.4
20260902025032 14 250 3.2 3.2 0.00 0.00 0.00 87 1019.4
20260902024519 14 250 3.2 3.2 0.00 0.00 0.00 87 1019.3
20260902024030 14 254 3.2 3.2 0.00 0.00 0.00 87 1019.3
20260902023513 14 254 3.2 3.2 0.00 0.00 0.00 86 1019.3
20260902023034 14 0.0 0.0 0.00 0.00 0.00 86 1019.3
20260902022510 14 0.0 0.0 0.00 0.00 0.00 86 1019.3
20260902022004 14 252 0.0 0.0 0.00 0.00 0.00 86 1019.4
20260902021506 13 252 0.0 1.6 0.00 0.00 0.00 85 1019.3
20260902021001 13 252 1.6 1.6 0.00 0.00 0.00 85 1019.4
20260902020505 13 252 1.6 1.6 0.00 0.00 0.00 85 1019.3
20260902020000 13 252 1.6 1.6 0.00 0.00 0.00 84 1019.5
20260902015459 13 252 3.2 3.2 0.00 0.00 0.00 84 1019.3
20260902015037 14 252 3.2 3.2 0.00 0.00 0.00 84 1019.4
20260902013959 14 0.0 0.0 0.00 0.00 0.00 83 1019.4
20260902013500 14 254 3.2 3.2 0.00 0.00 0.00 83 1019.4
20260902012959 14 254 3.2 3.2 0.00 0.00 0.00 82 1019.5
20260902012457 14 254 1.6 1.6 0.00 0.00 0.00 81 1019.5
20260902011957 14 0.0 0.0 0.00 0.00 0.00 80 1019.6
20260902011455 14 0.0 0.0 0.00 0.00 0.00 80 1019.7
20260902010958 14 0.0 0.0 0.00 0.00 0.00 80 1019.7
20260902010502 14 254 1.6 1.6 0.00 0.00 0.00 80 1019.7
20260902005959 14 254 1.6 1.6 0.00 0.00 0.00 80 1019.7
20260902005747 14 0.0 0.0 0.00 0.00 0.00 80 1019.7
20260902004957 14 0.0 0.0 0.00 0.00 0.00 79 1019.9
20260902004455 15 254 0.0 1.6 0.00 0.00 0.00 80 1019.9
20260902003955 15 254 0.0 1.6 0.00 0.00 0.00 79 1019.9
20260902003454 15 254 0.0 3.2 0.00 0.00 0.00 79 1019.9
20260902002956 15 254 3.2 3.2 0.00 0.00 0.00 79 1019.9
20260902002454 15 254 1.6 3.2 0.00 0.00 0.00 79 1019.8
20260902001954 15 254 1.6 3.2 0.00 0.00 0.00 79 1019.8